星链-11734 (STARLINK-11734)

导读

STARLINK-11734是美国SpaceX星链星座的卫星,于2025年6月10日发射。星链项目旨在构建全球卫星互联网星座,为全球偏远地区、灾害现场等场景提供低成本高速宽带服务,该卫星入轨后将加入现有星座网络,进一步补全星链全球覆盖能力,增强星座服务稳定性与容量。

基本信息
目录编号:
64329
目录名称:
STARLINK-11734
国际标识:
2025-124N
轨道中心:
EARTH
卫星名称:
星链-11734
卫星全名:
星链-11734 (STARLINK-11734)
卫星状态:
在轨 (已飞行452 天)
发射日期:
2025-06-10 UTC
国别 :
美国 (US)
星等 :
--
轨道信息
数据来源 国际轨道数据
星历时间: 2026-09-05T03:55:24+0800
16小时前
查看轨道信息
半长轴: 6734.545km
偏心率: 0.0002714
轨道倾角: 43.003°
近地点辐角 277.258°
升交点赤经 28.956°
平近点角 82.798°
近地点: 354.58km
远地点: 358.236km
周期: 91.669分钟
每日圈数: 15.708708
详细信息
固有亮度:
5
最大亮度:
2.5
卫星平台:
Starlink V1.0
覆盖范围:
全球
运营商:
太空探索技术公司
运营商所在国:
美国
制造商(研发单位):
太空探索技术公司
制造商所在国:
美国
使用方式:
暂无
卫星简介
Starlink 计划是 SpaceX 推出的全球卫星互联网项目,通过发射低轨道卫星,为全球尤其是偏远地区提供高速、低延迟的互联网服务。自 2019 年起,Starlink 已部署数千颗卫星,旨在缩小全球数字鸿沟,推动互联网普及。该项目还为军事、航空等行业提供通信支持,带来广泛经济效益。
2D轨道图
3D轨道图
轨道高度分析图
轨道倾角分析图
轨道综合分析图
查看轨道综合分析图
交会数据列表
事件ID 空间交会对象 最接近时刻(TCA) 交会距离 交会风险概率(CRP) 交会风险指数(CRI) 操作
CDM_260906-104506-432906-748121
2026-09-06T
10:45:37+0000
2.025 km
极远距离
2.183789E-6 低风险 0.42